DECAYED

BREEZE-M DEB (TANK), 64469 (Decayed)

Orbit data source: Space-Track

BREEZE-M DEB (TANK), 64469 was space debris in LEO originally from a launch on Thu, 19 Jun 2025 UTC launched from the Plesetsk Missile And Space Complex (PKMTR). Debris objects in space refer to the collection of defunct objects orbiting the Earth. Examples of debris include non-operational satellites, rocket bodies, and fragments generated from explosions, collisions, or faulty payload assembly.

Not visible in the next 10 days
Identifier
64469, 2025-131D
Orbit
Decayed
Country
Flag of CISCIS
Related business
Manufacturer
Khrunichev
Mission
Decayed spacecraft
Bus & Motor
BRIZ TANK, Unknown motor
Mass
~1,000 kg wet, 1,000 kg dry
Launch date (UTC)
2025-06-19 (10 months ago)
Launch vehicle
Unknown
Launch site
Plesetsk Missile And Space Complex (PKMTR)
Object type
Payload
Rocket body
Debris
Shape & HBR
Torus, 2.0 m
Radar Cross Section
8.218 m², Medium (>0.1 m² and < 1m²)

Expand to show TLE details & history
Last TLE update: 1 month ago

TLE from 1 month ago
0 BREEZE-M DEB (TANK)
1 64469U 25131D   26060.53966455  .79572978  21587-5  11765-2 0  9992
2 64469  60.2602 180.2151 0399333 199.5692 158.9711 15.65141535  8754
Epoch: 2026-03-01T12:57Z
TLE epoch observation values (Epoch: 2026-03-01T12:57:07.017Z)
Latitude
-0.00006°
Longitude
-173.41014°
Altitude
627.445 km
Speed
7.403 km/s
True Right ascension
12h 00m 51s
True Declination
0° 00' 00"
Sunlit
Object was in full shadow at epoch
Visualization orbit readout
Latitude
Unknown
Longitude
Unknown
Altitude
Unknown
Speed
Unknown
Apparent Right ascension
Unknown
Apparent Declination
Unknown
Sunlit
N/A
Visualization observer readout
Local Sidereal Time
00:45:04
Azimuth
Unknown
Elevation
Unknown
Doppler factor
Unknown
Orbital elements
Apogee altitude
641.535 km
Perigee altitude
102.426 km
Semi-major axis
6,750.117 km
Eccentricity
0.03993
Inclination
60.2602°
RAAN
180.2151°
Arg. of periapsis
199.5692°
True anomaly
160.53974°
Mean anomaly
158.9711°
Eccentric anomaly
159.76255°
Mean motion
3.9136 °/min
Orbital period
91.99 mins
BSTAR
0.0011765
Loading maneuver chart data...
Computing Atmospheric mass density...
Loading historical data...
Loading historical data...
Loading historical data...
Loading historical data...
Loading historical data...
Loading historical data...
Loading historical data...
Other satellites on launch #131 in the year 2025 (2025-06-19 UTC)

Documentation

Showing up to 5 results
|